Regional Weather Roundup
Issued by NWS

Home | Current Version | Previous Version | Graphics & Text | Print | Product List | Glossary On
Versions: 1 2 3 4 5 6 7 8 9 10 11 12 13 14 15 16 17 18 19 20 21 22 23 24 25 26 27 28 29 30 31 32 33 34 35 36 37 38 39 40 41 42 43 44 45 46 47 48 49 50
000
ASUS45 KTFX 280710
RWRMT
MONTANA REGIONAL WEATHER ROUNDUP
NATIONAL WEATHER SERVICE GREAT FALLS MT
100 AM MDT THU MAY 28 2015

NOTE: "FAIR" INDICATES FEW OR NO CLOUDS BELOW 12000 FEET WITH NO
SIGNIFICANT WEATHER AND/OR OBSTRUCTIONS TO VISIBILITY.

MTZ001>007-043-280800-
WEST OF THE DIVIDE

CITY           SKY/WX    TMP DP  RH WIND       PRES   REMARKS
KALISPELL      MOSUNNY   48  46  93 CALM      30.02R
MISSOULA       CLOUDY    55  46  71 SE6       30.06R
BUTTE          CLOUDY    46  41  82 CALM      30.10R
MULLAN PASS    PTCLDY    43  41  93 NW3       30.12R
DEER LODGE       N/A     48  45  87 CALM      30.12R
EUREKA           N/A     55  54  94 CALM      30.03R
HAMILTON         N/A     52  45  76 S6        30.06S
LIBBY            N/A     54  48  82 CALM      30.06R
PLAINS           N/A     51  47  86 CALM      30.05R
RONAN            N/A     52  48  86 CALM      30.07R
$$

MTZ008-052>055-280800-
SOUTHWEST MONTANA

CITY           SKY/WX    TMP DP  RH WIND       PRES   REMARKS
BOZEMAN        LGT RAIN  50  47  89 SE8       30.06R
DILLON         CLOUDY    48  42  80 S3        30.08R
W YELLOWSTONE  CLOUDY    41  39  93 SW3       30.12S
$$

MTZ009-010-012-014-046-048-049-054-280800-
EAST SLOPES AND CENTRAL MONTANA

CITY           SKY/WX    TMP DP  RH WIND       PRES   REMARKS
CUT BANK       CLOUDY    50  47  89 W3        29.99S
GREAT FALLS    MOCLDY    54  47  77 S5        30.00R
MALMSTROM AFB  MOCLDY    51  48  90 SW7       30.00R
HELENA         LGT RAIN  54  48  80 NE3       30.02S
CONRAD           N/A     49  49 100 CALM      30.02R
$$

MTZ011-013-016-021-045-047-050-051-280800-
NORTH CENTRAL MONTANA

CITY           SKY/WX    TMP DP  RH WIND       PRES   REMARKS
HAVRE          PTCLDY    52  50  93 SW7       29.94F
LEWISTOWN      MOCLDY    50  45  83 CALM      30.00S
CHINOOK          N/A     54  50  87 W3        29.94S
FORT BENTON      N/A     54  48  82 S5        29.98F
$$

MTZ017>020-022>027-061-062-280800-
NORTHEAST MONTANA

CITY           SKY/WX    TMP DP  RH WIND       PRES   REMARKS
GLASGOW        CLEAR     56  53  90 S6        29.87F
JORDAN           N/A     53  51  93 W5        29.92S
SIDNEY         PTCLDY    52  48  87 CALM      29.89S
WOLF POINT     CLEAR     56  53  90 E5        29.89F
MALTA            N/A     52  45  77 CALM      29.88S
PLENTYWOOD       N/A     54  54 100 NE7       29.90F
POPLAR           N/A     54  52  94 N3        29.89F
SCOBEY           N/A     55  49  80 E2        29.89F
$$

MTZ028>42-056>058-280800-
SOUTHCENTRAL AND SOUTHEAST MONTANA

CITY           SKY/WX    TMP DP  RH WIND       PRES   REMARKS
BAKER          MOCLDY    52  50  93 CALM      29.93F
BILLINGS       PTCLDY    53  46  77 SW9       29.99R
LIVINGSTON     PTCLDY    48  42  80 NW7       30.03S
MILES CITY     CLOUDY    55  54  96 NW5       29.92F
BIG TIMBER       N/A     48  43  81 W7        30.02F
EKALAKA          N/A     53  49  86 SE3       29.93F
FORSYTH          N/A     55  54  94 SW3       29.93S
LAUREL           N/A     49  41  74 CALM      29.98S
ROUNDUP          N/A     52  45  77 SW5       29.90R
$$

REGIONAL REPORTS...DAKOTAS

CITY           SKY/WX    TMP DP  RH WIND       PRES   REMARKS
WILLISTON      CLOUDY    58  54  86 NE5       29.89F
MINOT          CLOUDY    59  56  89 E9        29.93F
DICKINSON      MOCLDY    54  52  93 W5        29.90S
BEACH          FAIR      48  48 100 SW6       29.92F
CROSBY         CLOUDY    57  57 100 E8        29.93S
WATFORD CITY   CLOUDY    55  55 100 E6        29.89S
BISMARCK       CLOUDY    60  58  92 E7        29.93S
GRAND FORKS    CLOUDY    62  50  64 CALM      29.95F
FARGO          CLOUDY    65  54  67 E10       29.95S
BUFFALO SD       N/A     52  51  97 NW6       29.86F
RAPID CITY     PTCLDY    53  52  96 SE3       29.93F
$$

REGIONAL REPORTS...WYOMING/IDAHO/WASHINGTON

CITY           SKY/WX    TMP DP  RH WIND       PRES   REMARKS
GILLETTE         N/A     53  51  93 MISG      29.98F
SHERIDAN       CLOUDY    52  49  89 SW5       29.98F
BUFFALO WY     MOCLDY    52  47  83 W10       30.02S
CODY           MOCLDY    50  48  93 S3        30.04F
YELLOWSTONE LA   N/A     39  37  92 CALM      30.17R
IDAHO FALLS    CLOUDY    50  47  89 CALM      30.10S
SALMON         CLOUDY    48  46  93 CALM      30.08R
BOISE          CLEAR     59  45  59 CALM      30.02R
SPOKANE        PTCLDY    60  49  66 S7        30.01R
$$

REGIONAL REPORTS...ALBERTA

CITY           SKY/WX    TMP DP  RH WIND       PRES   REMARKS
EDMONTON       CLOUDY    52  45  76 N15G21    30.05R
CALGARY        PTCLDY    57  43  58 N16       30.02R
LETHBRIDGE     CLEAR     50  45  81 SW6       29.97S
MEDICINE HAT   CLEAR     52  48  87 S5        29.93F
$$

REGIONAL REPORTS...SASKATCHEWAN

CITY           SKY/WX    TMP DP  RH WIND       PRES   REMARKS
SWIFT CURRENT  PTCLDY    54  46  76 N5        29.93F
REGINA         MOCLDY    57  50  77 E5        29.94S
SASKATOON      PTCLDY    55  37  50 S6        29.91F
$$



USA.gov is the U.S. government's official web portal to all federal, state and local government web resources and services.